Regional Weather Roundup
Issued by NWS

Home | Current Version | Previous Version | Graphics & Text | Print | Product List | Glossary On
Versions: 1 2 3 4 5 6 7 8 9 10 11 12 13 14 15 16 17 18 19 20 21 22 23 24 25 26 27 28 29 30 31 32 33 34 35 36 37 38 39 40 41 42 43 44 45 46 47 48 49 50
000
ASUS44 KMEG 101400
RWRTN
TENNESSEE HOURLY STATE WEATHER ROUNDUP
NATIONAL WEATHER SERVICE MEMPHIS TN
800 AM CST SAT DEC 10 2016

TNZ002-004-019-021-049-052-054-088>092-101500-
WEST TENNESSEE

CITY           SKY/WX    TMP DP  RH WIND       PRES   REMARKS
MEMPHIS INTL   PTCLDY    27  19  72 E5        30.60S WCI  22
NWS MEMPHIS      N/A     22 N/A N/A MISG        N/A
JACKSON        SUNNY     20  17  88 CALM      30.62R
DYERSBURG      PTCLDY    21  19  93 E3        30.61F
UNION CITY     CLEAR     19  18  93 CALM      30.60F
PARIS          SUNNY     19  16  86 CALM      30.60S
LEXINGTON      SUNNY     19  18  93 CALM      30.60R
$$

TNZ008-025-027-028-033-062-065-066-101500-
NORTH MIDDLE TENNESSEE

CITY           SKY/WX    TMP DP  RH WIND       PRES   REMARKS
NASHVILLE      MOSUNNY   22  18  85 CALM      30.62R
CLARKSVILLE    SUNNY     19  15  84 CALM      30.61S
SMYRNA         SUNNY     24  22  91 CALM      30.64R
CROSSVILLE     CLOUDY    21  17  84 CALM      30.52R
$$

TNZ061-075-076-078-094-096-097-101500-
SOUTH MIDDLE TENNESSEE

CITY           SKY/WX    TMP DP  RH WIND       PRES   REMARKS
TULLAHOMA      SUNNY     23  18  80 NE5       30.57R WCI  17
WINCHESTER     SUNNY     19  18  93 CALM      30.57S
MCMINNVILLE    SUNNY     21  18  86 NE3         N/A
SHELBYVILLE    SUNNY     21  19  93 CALM      30.61R
$$

TNZ017-018-042-046-047-101500-
NORTHEAST TENNESSEE

CITY           SKY/WX    TMP DP  RH WIND       PRES   REMARKS
TRI CITIES     FOG       19  17  92 CALM      30.55R VSB 1/4
$$

TNZ012-013-036-069-073-074-101500-
CENTRAL EAST TENNESSEE

CITY           SKY/WX    TMP DP  RH WIND       PRES   REMARKS
KNOXVILLE      SUNNY     23  18  81 CALM      30.57R
OAK RIDGE      SUNNY     22  19  89 CALM      30.59R
GATLINBURG     SUNNY     19  16  86 CALM      30.58R
$$

TNZ083-085-099-101500-
SOUTHEAST TENNESSEE

CITY           SKY/WX    TMP DP  RH WIND       PRES   REMARKS
CHATTANOOGA    SUNNY     28  21  75 CALM      30.60R
$$

SKY/WX REPORTED AS FAIR MEANS FEW OR NO CLOUDS BELOW
12 THOUSAND FEET.




USA.gov is the U.S. government's official web portal to all federal, state and local government web resources and services.